Theta_e
314 313 316 320 323 320 325 331 332 334 330 326 323 325 323 324 329 327 328 326 327 324 322 327 329 328 326 333 337 338 337 340 342 337 337 336 337 340 339 338 337 336 337 335 327 321 322 328 333 333 332 332 332 332 333 335 335 332 330 332 332 332 332 332 331 331 332 333 332 334 334 332 331 331 331 331 331 331 331 331 331 331 331 331 331 331 331 331 332 333 333 332 331 331 331 331 332
314 314 319 322 324 319 326 335 334 336 334 322 319 325 321 321 327 328 331 328 327 324 325 333 334 335 335 337 337 336 336 338 336 334 337 337 339 340 338 338 336 336 337 332 324 320 320 327 331 332 332 332 331 331 333 334 333 331 331 332 332 332 332 331 331 332 333 333 333 334 334 333 331 330 330 330 330 331 331 331 332 332 331 331 331 331 330 331 331 332 332 331 330 331 331 331 332
314 316 321 323 323 322 332 335 332 332 328 321 323 328 322 321 330 331 330 327 325 326 328 333 335 335 337 341 338 335 335 337 337 337 338 339 340 339 338 337 336 336 335 330 321 319 317 322 329 330 332 332 332 332 333 333 333 334 334 333 332 331 331 331 332 333 334 334 333 332 332 332 331 329 330 330 330 330 330 331 331 330 330 330 330 330 330 330 331 332 332 331 330 331 331 331 331
314 318 321 324 328 331 339 334 336 333 322 324 324 326 328 326 330 329 327 325 323 327 327 329 335 331 338 349 339 338 339 337 338 338 340 339 339 339 338 336 336 336 334 327 319 319 317 320 326 329 331 332 333 332 332 333 333 335 335 333 332 332 331 331 333 331 331 333 332 331 331 332 330 329 329 329 330 329 329 329 329 329 330 330 329 330 329 329 330 331 331 331 330 331 332 330 330
317 322 320 324 332 332 334 328 332 329 322 329 323 326 335 330 329 328 326 325 323 325 324 332 340 331 336 343 336 342 341 338 338 337 339 338 339 338 337 336 335 335 332 324 319 319 317 318 324 329 330 331 333 332 332 332 332 334 335 333 331 331 331 331 332 330 330 333 332 331 332 332 329 329 330 330 331 330 329 329 329 329 329 330 330 330 329 329 330 331 331 331 331 331 331 330 329
320 322 321 322 323 324 330 324 325 329 328 332 326 330 332 327 329 329 326 324 325 324 327 337 340 337 340 338 334 340 337 337 339 337 339 338 339 338 337 336 335 335 329 321 320 318 316 317 323 328 329 331 333 333 332 331 332 334 334 334 332 332 331 330 330 330 330 331 330 330 332 331 329 330 331 331 331 331 330 330 330 330 330 330 330 330 330 330 330 331 330 330 331 330 330 330 329
319 320 325 326 322 324 334 326 330 337 328 324 330 332 326 327 328 329 326 323 325 324 332 338 338 342 341 335 335 336 335 337 338 338 339 339 339 338 337 335 335 334 327 322 321 318 316 317 322 327 331 331 332 333 332 330 332 333 334 334 333 332 331 329 329 329 330 330 330 331 331 329 328 330 331 330 331 330 330 330 330 331 330 330 330 330 330 330 330 330 330 330 330 329 329 329 329
321 324 329 332 328 331 334 325 332 337 320 318 328 328 325 327 326 327 327 325 325 326 332 332 335 343 336 335 340 336 334 336 338 339 338 339 339 338 336 335 335 332 326 323 321 318 317 317 320 327 330 330 331 333 332 330 331 332 334 333 333 333 330 329 329 329 330 330 331 332 330 329 329 329 330 330 330 330 330 330 330 330 329 329 329 329 329 329 330 330 330 330 329 328 328 328 328
321 324 328 330 327 331 335 326 325 327 320 321 325 325 325 324 324 325 326 325 325 328 329 327 330 334 335 343 345 336 335 337 338 339 338 339 338 337 336 334 335 332 326 324 322 318 317 318 319 324 327 329 332 333 333 331 330 333 334 333 334 332 329 329 330 329 329 330 330 330 328 328 329 329 329 329 329 329 329 329 330 329 329 329 329 329 329 329 329 330 330 329 328 327 327 327 327
322 323 326 331 330 324 325 328 328 323 319 323 323 325 325 323 323 322 324 325 323 325 325 329 335 332 338 347 344 336 335 338 338 339 339 339 338 337 335 334 334 333 328 325 323 319 317 318 318 322 325 328 331 333 333 331 330 333 334 334 332 329 329 330 329 328 328 328 328 328 328 328 328 328 329 328 329 329 328 329 329 329 329 329 328 328 328 328 329 329 329 327 327 327 327 327 327
329 330 334 336 331 322 321 331 338 333 321 320 322 323 324 321 321 320 323 324 322 324 325 332 343 340 341 345 342 336 334 338 339 339 339 339 338 336 335 334 334 334 331 327 324 320 318 318 318 320 324 327 330 332 334 332 331 331 333 332 330 327 328 330 329 329 328 328 328 328 327 327 328 329 328 328 328 328 328 328 328 328 328 328 328 328 327 327 328 329 329 326 326 327 327 327 326
328 334 345 339 329 325 327 330 335 338 326 321 322 321 323 319 319 321 323 324 323 326 326 329 337 342 346 345 340 334 334 338 339 339 339 339 338 337 335 334 334 335 334 331 326 321 319 319 318 318 322 326 329 331 333 333 333 332 332 331 329 326 327 329 329 329 328 328 328 327 327 328 329 329 327 326 327 327 327 327 327 327 327 327 326 327 327 326 327 328 328 326 326 327 327 327 326
333 335 339 329 326 327 327 326 328 329 325 325 323 319 320 317 319 322 325 324 323 325 323 324 334 344 347 343 339 334 334 337 338 339 339 339 338 336 334 335 337 335 334 333 329 324 320 319 319 318 319 323 327 329 331 332 332 332 331 327 324 321 321 325 328 329 328 328 329 328 327 327 328 328 326 325 326 324 324 326 327 327 327 327 326 326 326 326 327 327 327 326 326 326 326 326 326
333 338 336 323 324 329 329 326 324 321 321 327 322 318 318 317 320 321 324 323 323 323 319 324 334 345 341 337 341 338 336 336 337 339 339 339 337 335 335 338 338 335 335 334 331 327 322 320 320 319 318 321 324 326 327 329 329 329 326 320 317 315 315 321 328 328 326 327 328 327 327 326 326 326 325 323 322 320 319 322 324 325 325 325 325 325 326 325 324 325 325 325 326 326 326 326 325
324 338 342 331 324 326 328 323 322 322 323 325 319 318 319 316 319 321 322 324 324 318 317 323 329 333 334 340 347 339 335 336 337 339 339 338 336 336 337 339 339 336 335 334 333 329 325 322 320 320 318 319 321 322 323 324 325 325 322 319 316 315 314 318 325 326 326 326 326 327 327 326 326 326 325 323 321 320 318 318 319 320 322 323 323 323 323 322 321 322 323 324 325 325 326 326 325
325 337 337 331 326 322 324 320 321 324 324 325 317 316 320 315 318 321 318 319 319 317 327 327 321 325 331 339 343 336 335 336 336 337 337 338 338 338 338 339 339 337 335 334 334 331 329 325 322 321 320 320 319 320 320 321 321 321 321 319 317 317 315 315 320 324 326 326 325 326 326 326 326 326 325 323 322 321 320 319 317 318 320 322 322 322 320 319 321 322 322 323 323 324 324 325 325
326 334 332 328 327 324 325 322 321 324 326 326 318 317 320 316 315 316 315 320 320 324 340 335 323 330 333 332 331 332 336 335 335 336 336 339 338 338 338 339 338 337 335 335 334 333 331 328 325 323 321 321 320 320 319 319 318 318 319 319 318 318 317 314 315 320 323 324 324 325 325 325 325 325 324 323 323 322 322 320 318 318 319 320 321 320 319 318 319 320 321 322 322 323 323 324 325
327 332 328 327 330 329 329 326 322 322 324 322 319 320 320 318 316 315 316 325 328 329 340 337 333 334 330 330 329 333 336 334 335 336 337 338 338 338 337 338 337 337 336 335 335 334 333 331 328 325 323 322 322 321 320 320 319 318 318 318 319 318 317 314 312 315 319 321 323 323 324 324 324 324 323 323 323 322 322 320 319 319 318 319 319 319 318 317 318 318 318 318 319 319 320 322 324
333 331 324 331 336 332 329 326 322 320 320 320 319 320 319 319 317 316 316 323 327 329 335 336 345 343 332 332 331 334 334 333 335 335 337 337 338 338 337 337 336 336 336 336 335 334 334 332 331 328 326 324 323 322 322 321 320 320 320 319 319 319 318 314 310 310 314 317 320 322 322 322 323 323 323 323 323 322 322 321 320 319 318 318 318 318 318 318 318 319 318 317 317 316 316 318 321
328 325 323 335 336 330 325 322 321 319 317 318 319 318 318 318 316 316 318 323 324 325 333 339 350 351 338 332 331 333 333 333 334 335 336 336 338 338 337 337 336 336 337 336 335 334 334 333 332 330 329 327 325 323 322 322 321 321 321 321 320 320 319 317 312 309 310 313 315 319 321 321 321 322 322 322 322 322 321 321 320 319 319 318 318 317 317 318 318 319 320 319 320 319 318 317 318
318 320 325 330 324 321 321 317 318 319 315 316 319 317 316 317 315 316 319 323 323 321 327 335 346 349 337 332 331 332 332 332 332 334 335 336 337 337 337 337 336 337 337 336 336 335 334 334 333 332 331 330 328 326 324 323 322 322 322 322 321 320 320 319 317 311 309 311 313 315 318 319 319 320 320 320 321 321 320 321 320 320 320 319 319 317 317 317 318 318 320 320 320 320 320 319 319
315 319 322 323 318 315 318 317 316 317 315 315 318 318 317 316 314 317 321 321 321 320 321 327 337 339 333 332 331 331 331 331 331 332 334 335 336 337 337 336 336 336 335 336 335 335 335 334 334 333 332 332 331 329 327 325 323 322 322 322 322 321 321 320 320 317 312 310 312 313 315 316 317 318 319 319 319 319 320 320 320 320 319 319 319 318 317 316 317 317 317 319 319 319 320 320 320
317 319 318 319 317 315 318 317 315 317 316 317 318 317 316 316 315 317 319 319 318 317 319 329 333 330 331 331 331 332 332 330 331 331 333 335 335 336 336 336 336 335 335 335 336 336 335 334 334 334 333 332 332 331 330 329 326 324 323 323 322 322 322 321 321 320 316 313 314 315 315 317 319 320 321 321 322 320 319 319 319 320 319 320 320 320 319 319 319 318 317 318 318 318 319 319 320
316 318 316 317 315 315 319 316 316 318 317 318 315 315 315 318 317 315 317 317 318 315 315 325 331 329 331 331 331 332 331 331 331 332 333 334 335 335 335 335 335 335 335 335 336 336 335 334 334 334 334 333 333 332 332 331 330 328 326 324 324 323 323 322 322 322 320 317 317 319 320 321 322 323 323 324 324 323 321 319 319 321 322 321 321 322 322 322 322 321 320 320 319 319 318 318 318
314 316 315 315 315 317 318 315 317 318 317 316 314 316 317 315 313 314 317 316 317 317 318 327 331 330 331 332 333 331 330 331 331 332 332 333 334 335 335 335 335 335 335 336 336 336 335 334 334 335 335 334 334 333 333 333 332 331 329 328 326 325 325 324 323 323 322 320 320 322 323 324 325 324 324 325 326 325 324 322 318 321 324 324 323 324 323 324 323 323 323 323 323 322 321 319 319
314 313 312 313 312 315 317 314 316 318 316 314 315 317 315 313 311 315 318 316 319 321 328 335 331 332 333 332 332 329 329 330 331 332 331 332 333 334 334 334 335 335 335 336 336 335 335 336 336 336 336 336 335 334 334 334 334 333 332 331 330 329 328 327 326 326 324 322 322 323 324 325 325 326 326 326 327 326 326 324 320 320 324 326 325 325 325 325 325 325 324 324 324 324 323 322 321
313 312 312 312 312 313 316 315 315 317 316 314 317 317 316 315 312 317 317 317 323 327 334 335 331 334 333 332 332 329 329 330 330 331 331 331 332 333 334 334 334 335 336 336 336 335 335 336 336 337 337 337 336 336 335 335 335 335 335 335 333 332 331 330 330 329 326 324 324 323 324 325 326 327 327 327 328 327 326 325 324 323 324 326 326 326 326 326 326 326 325 325 325 324 324 323 322
311 312 313 313 313 314 314 315 315 315 315 315 317 315 316 315 313 318 314 315 324 333 337 333 332 334 331 332 332 329 329 329 330 330 330 331 331 332 333 334 334 334 335 335 336 335 334 335 336 336 337 337 337 337 336 335 336 336 336 336 336 335 333 332 332 332 329 327 326 324 324 325 325 326 327 328 328 327 326 325 326 325 326 326 326 326 326 326 326 326 326 326 325 325 325 324 323
311 312 313 313 313 314 315 315 315 315 314 316 316 314 316 315 315 317 313 316 327 334 336 333 332 332 331 332 331 330 329 329 330 330 330 331 331 332 332 334 334 334 335 335 335 335 334 335 335 336 336 337 337 337 336 336 336 336 336 336 336 335 334 333 333 333 332 330 329 327 327 326 326 326 327 327 327 328 327 327 326 326 327 327 326 326 326 327 326 326 326 325 325 325 325 325 324
313 312 312 314 314 315 315 313 314 314 314 316 315 316 320 318 316 315 314 322 332 334 336 332 331 332 330 331 331 330 329 328 329 329 331 331 331 332 332 333 333 334 335 335 335 335 334 334 334 335 335 337 337 337 336 335 335 336 336 337 336 335 334 334 334 334 334 333 331 330 330 329 328 328 327 327 327 327 327 327 327 327 327 326 326 326 326 326 326 326 326 326 326 325 325 325 324
314 313 312 315 315 319 319 314 314 314 313 314 314 315 320 318 317 314 314 324 331 333 336 330 328 330 329 330 330 330 329 328 329 329 330 330 331 331 331 332 333 333 334 334 335 335 335 334 334 335 335 336 336 337 337 336 335 335 336 337 336 336 335 334 335 335 334 334 333 332 331 330 330 329 329 328 328 328 328 327 328 327 327 327 326 326 326 326 326 326 326 326 326 325 325 324 324
316 314 315 317 315 319 323 316 314 314 312 313 314 316 317 316 317 314 311 319 327 329 332 329 327 328 328 329 328 329 328 326 328 329 330 330 330 331 331 332 332 332 333 334 334 334 334 334 333 334 334 335 335 336 337 337 336 335 336 336 336 336 335 335 334 334 335 334 334 333 332 332 331 330 330 329 329 328 328 328 328 327 327 327 327 326 326 326 326 325 325 324 325 324 324 324 324
319 315 317 321 316 316 318 315 314 315 313 312 313 317 318 316 314 313 311 315 321 324 326 327 326 325 325 326 327 327 327 326 326 326 328 330 330 330 330 331 331 332 332 333 333 333 334 333 333 332 333 334 334 334 336 337 337 337 337 337 337 336 336 335 334 335 335 335 335 334 334 333 332 332 331 330 330 329 329 329 328 327 328 328 328 327 326 326 326 326 325 324 324 324 324 325 325
319 312 314 320 317 314 315 315 315 313 313 313 313 315 317 316 313 313 312 312 315 319 320 321 322 321 321 322 324 325 325 326 325 324 326 328 329 330 330 330 331 331 331 332 332 333 333 332 332 332 332 333 333 333 334 336 336 337 337 337 337 337 336 336 335 335 335 335 335 335 335 334 333 332 332 331 331 330 330 329 328 328 327 328 328 328 326 326 326 326 325 325 325 325 325 325 325
318 314 314 316 315 313 314 315 314 313 313 313 314 314 314 315 314 313 311 310 313 314 313 313 315 317 317 317 319 320 322 323 322 321 324 326 327 329 330 331 331 331 331 331 331 331 331 331 331 332 332 332 332 332 333 334 335 336 337 337 337 336 336 336 336 336 335 335 335 335 335 334 334 333 333 332 332 332 331 330 329 328 328 327 327 328 327 327 326 325 325 325 326 326 325 325 325
316 316 315 315 315 313 313 316 315 313 314 314 314 314 314 314 314 314 311 309 312 312 310 311 311 312 313 314 314 315 317 319 318 318 320 323 325 327 328 330 330 331 331 331 332 331 331 331 332 332 332 332 332 332 332 333 334 336 336 336 336 336 336 336 336 336 335 335 335 335 335 334 334 334 333 333 333 332 331 331 330 328 328 327 326 326 326 326 326 325 325 326 327 326 326 326 326
311 314 315 315 314 313 313 315 315 312 313 315 314 314 314 313 314 313 311 310 312 313 312 311 311 310 310 312 313 313 314 315 314 315 318 320 322 325 327 328 330 331 331 331 332 332 332 332 332 332 332 332 332 332 332 332 333 335 335 336 336 336 336 335 336 336 335 335 335 335 334 334 334 334 334 334 333 332 331 331 330 330 330 329 328 327 326 326 326 326 327 326 326 326 327 327 326
310 313 315 314 313 313 312 312 315 313 312 315 315 313 313 312 312 312 310 311 313 315 314 313 311 310 310 310 312 312 312 312 312 313 315 318 321 323 325 327 329 330 331 331 331 332 333 333 332 333 332 332 332 332 332 332 333 333 334 335 335 335 335 335 335 335 335 335 335 334 334 333 333 333 333 333 333 332 332 331 331 330 329 328 328 327 326 326 326 326 326 327 326 326 326 326 326
312 314 314 314 313 312 313 313 315 313 312 317 316 313 315 313 312 312 310 311 313 313 314 313 312 311 311 311 311 311 311 312 313 313 313 315 319 322 324 326 327 329 330 331 331 332 332 332 333 333 333 333 332 332 333 332 332 332 333 334 334 334 334 334 334 334 334 334 334 335 334 334 334 333 333 333 332 332 332 332 332 331 329 327 327 327 327 325 325 325 326 327 327 326 326 325 325
314 315 313 314 313 312 314 314 313 312 312 315 315 313 315 313 312 313 312 311 312 312 312 312 312 313 312 312 311 311 311 312 313 313 312 311 315 320 323 325 326 327 328 329 331 331 332 332 333 333 333 333 333 333 333 333 333 333 333 333 333 333 333 334 334 334 334 334 335 335 334 334 334 333 332 332 332 331 332 331 330 330 329 329 329 328 327 326 326 327 327 328 327 326 326 325 324
315 316 313 313 312 312 314 313 312 312 312 313 314 314 318 318 316 316 313 310 310 310 311 312 312 313 312 312 312 312 311 311 311 313 312 309 310 316 321 324 325 327 327 328 329 330 331 332 332 333 333 333 333 333 333 333 333 332 333 333 333 333 333 333 333 334 334 334 334 334 334 333 334 333 332 332 331 330 330 329 328 328 328 329 329 329 328 327 328 328 328 329 328 327 326 324 324
315 315 313 311 311 312 314 316 315 313 315 315 312 316 328 331 322 318 316 314 312 310 310 311 311 311 311 312 312 312 312 311 311 312 311 308 308 311 317 322 324 326 327 328 328 329 330 331 332 333 333 333 334 333 333 333 333 333 332 332 332 332 332 332 332 332 333 333 333 333 333 333 334 333 332 331 331 330 330 330 329 330 330 330 330 330 330 329 328 327 328 328 327 328 327 325 324
314 316 316 313 310 312 315 317 316 317 317 314 311 317 327 326 321 321 321 319 318 313 312 312 310 310 311 311 311 311 311 311 311 311 310 308 307 308 312 318 323 325 326 327 328 328 329 330 331 332 332 333 333 334 334 333 333 333 333 333 333 332 332 331 331 331 331 331 332 332 332 333 333 332 332 332 331 330 330 330 329 329 329 329 329 330 330 328 326 325 325 325 325 326 325 323 323
314 318 318 315 312 314 317 316 318 321 317 315 317 318 318 317 317 319 317 318 321 317 315 315 312 309 309 310 310 311 311 311 311 313 312 308 306 307 310 313 319 322 324 326 327 328 329 330 331 332 332 332 333 334 333 333 333 333 333 333 332 332 332 331 331 330 330 330 330 331 332 332 332 332 332 331 331 331 331 330 329 328 327 326 327 328 329 327 324 323 324 325 324 323 322 321 321
317 321 319 316 316 317 318 317 318 318 314 318 322 314 313 321 324 321 315 313 318 320 318 319 317 314 311 309 309 309 310 310 311 312 312 307 305 307 309 311 314 318 322 325 326 327 328 329 330 331 331 332 332 333 333 333 333 333 333 332 332 332 331 331 330 330 330 330 330 330 331 331 331 331 331 330 330 330 330 330 329 328 327 325 324 326 327 326 323 323 324 324 323 322 321 321 321
318 323 320 320 323 321 319 319 318 315 313 319 323 315 313 323 329 324 316 312 317 320 318 317 317 316 312 310 310 309 309 310 312 311 307 304 305 308 309 310 312 316 320 323 325 326 328 328 329 330 331 332 332 332 332 332 333 333 332 332 332 332 331 331 330 329 329 329 329 329 329 330 330 330 330 329 329 328 328 327 326 326 326 326 326 326 325 325 324 323 322 322 321 321 321 321 320
317 320 318 318 323 323 323 327 322 314 315 322 326 320 313 318 327 324 316 316 318 317 315 314 313 315 315 315 315 311 309 310 312 313 306 302 305 307 308 310 311 314 317 321 323 325 326 327 328 329 330 331 331 332 332 332 332 332 332 332 332 331 331 330 329 329 329 328 328 328 328 329 329 329 328 328 327 326 325 325 324 324 325 324 325 325 324 323 323 322 320 320 319 319 319 319 319
316 322 320 318 323 324 325 330 323 314 319 324 323 318 312 315 323 321 317 317 317 314 314 316 316 319 320 321 322 321 316 312 312 316 312 306 307 307 308 309 310 313 315 318 322 323 324 326 327 328 329 329 330 331 331 332 331 332 332 331 332 331 331 330 329 329 329 328 328 328 328 328 327 327 327 326 325 324 324 323 322 322 322 322 322 322 322 321 321 320 319 317 317 317 318 317 317
315 320 320 318 322 321 320 324 321 318 319 316 314 315 313 314 317 317 316 314 316 313 311 314 316 317 319 320 326 332 329 322 320 320 317 318 315 308 307 309 309 311 314 316 319 321 323 325 326 327 328 328 329 329 330 331 331 331 331 331 331 331 331 330 330 330 329 328 328 327 327 327 326 326 325 325 324 323 322 322 321 320 318 318 318 319 319 318 317 317 316 315 315 315 315 315 315
314 317 319 319 320 318 317 318 317 319 319 313 311 313 314 316 316 317 315 312 314 313 308 311 313 312 313 313 318 328 332 328 326 322 322 324 315 306 307 309 309 310 312 314 316 318 320 322 324 325 326 327 328 328 329 329 330 330 331 331 331 331 330 330 330 329 329 328 327 327 327 326 326 325 324 323 322 322 321 321 319 317 314 314 315 316 316 315 314 312 312 311 310 310 311 311 311
315 318 320 320 321 320 319 320 319 320 319 314 310 313 319 321 318 316 314 312 313 313 311 313 312 312 313 312 314 321 327 328 324 322 325 319 307 305 309 310 309 310 310 311 312 313 316 317 320 323 324 326 327 328 328 329 329 330 330 330 330 330 330 330 330 330 329 328 327 327 326 326 325 324 323 322 322 321 320 319 316 314 313 313 313 313 312 311 309 309 308 308 307 307 307 307 308
317 318 317 318 321 321 320 320 321 320 318 316 312 316 323 321 314 312 311 311 312 311 312 313 315 318 320 320 321 320 323 327 324 324 328 317 304 306 310 310 311 311 310 311 311 311 312 312 314 317 320 323 324 326 328 328 329 329 330 330 329 330 330 330 330 329 328 328 327 326 325 324 323 323 322 321 321 320 319 317 315 314 313 313 312 310 309 308 308 307 307 306 305 305 304 303 304
316 314 317 318 317 318 319 315 314 314 315 317 315 316 320 318 313 314 313 314 315 312 313 314 315 319 323 326 328 326 326 326 324 325 328 318 305 306 310 310 312 312 311 312 311 311 311 310 311 312 314 318 321 323 325 327 329 329 329 329 329 329 330 330 330 328 327 326 325 325 324 323 322 322 321 319 318 318 317 316 315 314 313 313 312 310 308 308 307 305 304 303 303 302 301 299 298
317 316 318 317 313 317 323 319 315 313 312 318 318 315 318 317 316 320 318 314 314 313 314 314 314 317 322 325 327 329 326 323 322 323 321 312 305 306 310 311 312 312 312 312 312 312 312 311 311 310 311 315 318 321 323 324 326 327 328 328 328 329 329 329 329 327 326 325 324 323 322 322 321 320 318 317 317 317 317 316 314 313 313 312 312 310 309 308 306 303 302 300 299 298 296 295 294
316 318 316 317 317 318 319 318 317 313 312 320 322 317 316 317 317 321 319 315 316 315 314 316 316 318 320 321 322 322 320 320 323 324 323 316 308 308 312 312 313 313 312 313 313 312 312 312 311 310 311 313 316 320 322 323 325 325 326 327 327 327 327 327 327 326 325 324 323 322 321 321 320 318 317 317 316 316 316 315 313 312 312 311 311 310 309 306 303 300 298 295 294 294 293 292 292
312 314 312 315 318 318 317 316 316 317 315 318 321 317 316 317 318 318 315 315 316 314 315 317 318 318 319 319 318 318 318 321 324 325 327 320 308 308 313 313 313 314 313 314 313 313 313 312 312 311 311 314 317 320 321 322 324 324 325 325 325 326 325 325 325 324 324 323 322 321 320 320 318 317 316 316 316 315 314 313 312 311 310 310 310 308 305 302 298 295 294 292 292 292 292 292 291
313 315 314 312 312 315 317 316 316 319 319 318 317 314 316 318 316 315 313 314 313 313 314 316 318 318 318 317 315 315 316 319 321 322 325 316 305 308 312 311 313 313 313 314 314 314 314 313 312 312 312 314 317 319 321 322 323 323 324 324 324 324 324 324 323 323 322 322 321 320 319 318 317 316 316 315 314 313 312 311 310 309 309 308 306 302 299 296 294 292 292 291 291 291 292 292 291
315 315 315 314 313 315 315 314 315 316 317 320 317 312 315 318 313 312 313 312 311 312 312 313 319 319 317 315 313 313 315 317 318 317 318 312 304 305 309 309 311 312 312 314 314 314 314 314 313 313 313 315 317 319 321 321 322 322 322 323 323 322 322 322 322 321 321 320 319 319 318 317 316 315 314 313 312 310 309 309 308 307 304 301 298 296 294 292 292 292 292 291 291 291 291 291 290
Wind_Speed
8 7 6 4 4 1 3 6 2 3 3 2 2 1 2 2 2 2 3 1 1 1 1 1 4 6 5 5 7 7 4 3 4 4 3 3 13 22 17 17 19 18 18 15 13 12 12 14 13 13 13 12 11 11 10 10 10 10 10 12 13 14 14 14 15 14 13 15 15 14 15 16 17 17 16 17 17 17 17 17 17 17 17 17 17 17 16 17 17 16 16 16 16 16 16 16 16
7 6 5 3 5 3 1 3 3 3 5 2 2 2 2 2 1 4 5 4 3 2 2 6 9 9 8 7 6 5 3 2 2 3 1 8 18 17 15 19 20 19 18 15 13 12 12 13 14 14 13 12 12 11 11 10 10 10 11 12 13 13 14 14 14 14 14 15 14 14 15 16 17 16 16 16 16 16 16 16 16 16 16 16 16 16 16 16 17 16 16 15 15 16 16 16 16
7 5 5 2 3 5 2 3 3 1 4 0 4 3 1 1 5 6 7 5 7 7 5 6 7 6 6 6 3 3 1 3 2 1 3 14 15 13 18 20 20 19 18 16 14 12 12 13 15 16 15 13 12 12 11 12 12 12 12 12 13 13 13 13 15 14 13 14 13 13 13 15 16 15 15 15 15 15 15 15 16 16 16 16 15 16 16 16 17 15 15 15 15 15 16 16 16
6 6 5 2 2 4 4 4 2 4 1 2 3 4 2 5 7 6 6 4 6 6 3 3 4 2 4 6 2 2 1 1 2 1 5 14 13 17 23 22 20 19 18 16 14 12 12 14 16 17 17 15 13 12 12 12 12 13 14 12 13 13 13 13 14 12 11 12 13 13 12 13 15 15 15 15 15 15 15 15 16 15 15 16 15 16 16 16 16 14 14 15 15 15 15 16 16
5 7 7 4 3 2 3 3 2 3 2 3 2 5 4 6 7 6 4 2 3 3 3 3 3 2 3 4 1 2 2 2 4 3 7 13 16 22 24 23 21 19 18 16 13 12 11 15 18 18 18 16 14 12 12 12 11 15 15 12 13 13 12 13 13 12 11 12 13 13 13 13 14 14 14 14 14 15 15 15 15 15 15 15 15 16 16 16 15 14 14 15 15 15 15 16 16
4 6 9 7 3 1 3 1 0 1 4 5 3 5 5 7 7 7 4 2 5 4 2 4 4 2 3 1 0 3 2 4 6 7 10 14 19 24 25 24 22 20 19 16 14 12 12 15 18 18 18 17 14 11 11 11 11 15 16 13 12 12 12 12 13 12 12 12 12 12 13 14 14 14 13 13 14 14 14 15 14 15 15 15 15 15 15 14 15 14 14 14 14 14 15 15 15
4 3 6 7 2 1 4 1 3 3 4 5 4 5 7 7 6 7 5 2 3 2 2 4 6 7 3 2 1 1 2 5 7 10 14 17 21 24 25 24 22 21 19 16 14 12 13 15 18 19 18 17 15 12 11 11 12 15 17 14 12 12 12 12 12 12 12 12 12 13 12 13 14 13 13 13 13 13 13 13 13 13 14 14 13 13 13 14 14 13 13 14 14 14 15 14 13
6 2 1 4 2 3 4 1 3 3 3 4 5 5 8 8 6 7 6 3 2 1 2 3 4 7 1 1 3 2 2 7 7 13 17 19 24 24 25 24 22 22 19 17 14 13 14 15 17 19 19 18 16 12 11 12 12 14 16 15 13 13 12 12 12 13 13 12 12 13 12 12 13 13 13 13 13 13 13 13 12 12 13 13 12 12 12 13 13 12 12 13 14 15 15 14 13
7 3 0 4 2 2 3 2 4 3 3 4 4 4 5 6 5 6 6 1 1 4 4 5 3 5 2 3 1 3 2 8 11 15 18 21 25 25 26 24 23 22 20 18 15 14 14 15 16 17 18 19 17 12 11 13 12 13 15 14 13 12 13 13 13 13 12 12 12 11 10 11 12 12 12 12 13 12 13 13 13 12 12 12 12 12 12 12 12 11 11 12 13 14 14 14 13
5 4 1 3 2 2 3 2 3 2 4 5 4 5 3 4 4 3 4 3 2 5 4 3 5 5 5 3 1 2 3 13 17 19 20 22 24 24 25 23 23 22 21 19 16 15 15 14 14 16 17 18 18 13 12 13 12 13 14 14 12 11 13 13 13 13 12 12 12 10 10 11 11 11 11 12 12 12 12 13 13 12 12 11 11 11 11 11 11 11 11 12 13 12 13 13 12
3 4 2 4 3 2 2 3 4 4 4 4 2 4 3 3 3 1 2 4 1 3 4 1 5 5 5 1 2 1 6 18 22 24 24 23 24 24 25 23 22 21 21 19 17 15 15 14 13 14 16 18 19 16 14 13 12 12 13 13 10 11 13 13 13 12 13 12 12 12 12 13 12 11 11 12 12 12 12 12 12 11 11 11 11 11 10 11 11 10 10 12 12 11 11 11 11
2 3 4 4 2 3 3 2 5 5 5 2 2 4 4 4 3 3 4 5 2 3 4 3 5 6 5 1 3 1 7 20 23 26 26 24 24 24 24 23 22 21 20 18 17 16 15 15 13 13 15 17 19 17 16 14 14 13 12 11 10 11 13 13 13 12 13 13 11 12 14 14 13 12 11 11 12 11 11 12 11 11 11 10 10 10 10 10 11 10 10 11 11 10 10 9 9
3 2 5 2 3 3 3 2 4 3 5 3 4 2 5 5 3 7 6 5 4 5 4 5 7 6 4 2 3 2 7 19 23 27 28 25 24 24 24 22 21 21 19 18 18 17 16 15 14 13 14 16 18 17 16 16 16 15 13 12 10 11 12 13 14 12 14 14 11 12 13 13 12 11 10 10 12 11 12 13 12 11 11 10 10 10 10 10 10 10 11 11 10 9 9 8 8
2 3 5 2 1 2 4 2 2 1 3 5 3 2 5 3 4 6 7 6 5 4 2 5 8 6 3 2 2 3 9 19 23 28 29 26 24 24 24 22 22 22 20 19 18 17 17 15 14 14 14 15 17 15 15 15 15 15 13 11 10 10 11 14 15 13 14 15 13 12 12 11 11 10 9 9 11 11 11 12 11 11 10 10 10 10 9 9 10 11 11 10 10 9 8 8 7
3 2 4 4 1 1 3 1 2 4 5 4 3 5 5 2 3 6 5 7 6 4 2 4 4 3 4 6 4 7 15 22 25 28 29 27 25 25 24 23 22 23 22 20 18 18 17 16 15 14 14 15 15 14 13 13 12 12 11 9 9 9 10 13 15 14 14 14 13 13 12 11 10 9 8 8 9 9 9 10 9 9 9 9 9 9 9 10 11 11 11 10 10 9 8 8 7
2 3 5 3 1 2 3 2 3 3 5 5 2 4 6 4 2 6 5 5 3 1 2 2 1 1 7 9 6 16 23 25 27 28 29 27 25 25 25 24 24 24 23 22 20 19 18 18 16 15 15 14 14 13 13 12 11 10 9 8 7 8 9 10 13 14 14 13 12 13 13 11 10 9 8 7 8 8 8 8 7 8 8 9 8 8 9 10 10 10 9 9 9 9 8 7 7
2 3 5 2 2 3 4 3 4 3 5 5 3 4 8 3 1 3 0 5 4 1 3 1 2 3 6 3 2 22 28 26 29 28 28 27 25 25 24 25 24 23 24 24 22 21 19 18 18 16 15 14 14 13 12 12 11 10 9 8 7 8 8 9 10 13 13 13 13 13 12 11 10 9 8 8 7 6 6 6 6 7 6 7 7 7 8 8 9 8 8 7 7 7 7 7 7
3 3 4 2 4 4 5 6 6 4 3 5 6 6 9 6 4 3 2 5 3 2 4 3 4 5 3 4 5 27 29 27 30 28 27 26 26 25 24 25 25 24 25 25 24 23 21 20 19 18 16 16 15 14 13 12 11 11 10 10 9 8 8 9 10 12 12 12 12 12 12 11 10 9 8 8 7 6 5 5 5 5 5 5 5 6 7 7 7 6 6 5 5 5 6 6 6
3 3 3 3 5 5 5 5 5 4 3 3 6 6 8 8 7 4 3 2 1 3 2 5 4 5 3 3 17 28 28 29 30 29 27 26 29 29 27 26 26 27 27 27 26 25 23 21 20 19 18 17 16 15 14 13 13 12 12 11 10 10 9 9 9 11 12 12 12 12 12 11 10 9 8 7 6 6 5 4 4 4 4 4 4 5 5 6 6 6 5 5 4 4 4 5 5
1 4 1 5 6 4 4 4 5 6 3 1 5 4 5 6 6 4 4 5 4 6 5 1 3 4 0 7 21 26 25 27 27 28 26 26 30 31 31 30 30 31 30 29 28 26 25 23 22 20 19 18 18 17 16 15 14 14 13 12 11 11 10 10 10 10 11 12 12 12 12 11 10 9 8 8 6 5 5 4 4 3 3 3 3 4 4 4 4 5 5 5 4 3 3 3 4
0 4 3 4 3 2 4 5 5 6 4 3 2 2 4 5 4 4 7 7 5 8 9 8 9 8 6 8 17 23 23 22 22 25 25 25 27 29 31 32 32 32 30 29 28 28 27 25 23 22 21 20 19 18 18 17 16 15 15 14 13 12 11 11 10 10 10 12 12 13 12 11 10 9 9 8 6 5 5 4 4 3 2 2 2 4 4 4 3 3 3 3 2 2 2 2 2
0 2 4 4 3 3 6 5 4 4 3 4 5 4 5 3 2 5 11 9 7 7 9 9 8 11 13 14 17 20 20 20 20 21 23 24 26 27 27 28 28 27 26 28 29 30 28 27 25 23 22 21 20 20 19 18 17 17 16 16 15 13 13 12 11 11 11 12 13 13 13 12 11 10 9 8 6 6 5 5 4 4 4 3 3 5 5 4 3 2 2 1 1 1 1 1 1
0 3 2 4 3 3 5 1 2 2 4 5 6 4 3 5 3 4 10 11 4 2 7 8 8 12 17 19 18 17 17 19 20 23 25 26 27 28 27 27 27 26 27 30 31 30 28 28 27 25 24 23 22 20 20 19 19 18 18 17 16 15 14 14 13 12 12 12 13 13 13 13 12 11 10 8 7 6 5 5 5 5 4 4 4 4 4 4 3 2 2 2 3 3 3 3 3
1 2 4 3 2 5 6 1 2 1 6 7 3 1 4 8 5 2 7 11 2 5 2 9 10 11 14 15 15 16 19 22 24 26 27 28 30 30 29 29 28 28 30 31 31 30 29 29 28 26 25 24 23 22 21 20 20 19 19 18 18 17 16 15 14 13 13 13 13 14 13 13 12 12 11 10 8 7 6 5 6 5 4 4 5 4 3 3 2 2 2 3 5 6 6 6 7
2 3 3 3 1 4 7 3 2 1 5 4 4 2 4 5 2 2 9 11 4 4 3 9 10 10 10 12 13 14 17 21 23 24 24 25 27 27 27 28 27 28 30 31 31 30 29 28 28 27 26 25 24 23 23 22 22 21 20 20 19 18 18 17 15 14 14 14 15 15 14 14 13 12 12 10 9 8 7 6 7 7 5 5 6 5 4 4 3 4 4 5 6 8 8 8 8
3 2 2 4 6 7 7 4 2 1 2 2 4 3 4 2 0 3 10 9 3 3 6 8 10 10 10 11 12 14 14 18 22 23 24 23 23 25 26 27 27 28 31 31 31 31 29 28 28 27 26 25 25 24 24 23 23 22 22 21 20 19 19 17 16 16 16 15 16 16 15 15 14 13 12 11 10 10 8 8 8 9 8 7 7 6 6 6 6 6 7 7 8 9 10 10 10
1 2 4 4 7 6 4 4 5 2 0 3 6 5 4 3 1 4 8 4 6 7 7 7 10 11 11 10 11 15 16 20 25 24 22 20 22 25 26 28 29 30 31 31 32 32 30 30 29 28 26 25 25 25 24 24 24 23 22 21 21 20 19 18 17 17 17 17 17 17 16 16 14 14 13 12 11 10 10 10 9 9 9 8 8 7 7 8 8 8 9 9 10 11 12 12 12
3 4 7 7 6 5 4 5 7 3 0 3 6 3 3 3 0 7 6 1 5 8 7 7 9 9 10 11 10 12 15 20 24 22 21 23 26 29 30 31 32 31 32 33 33 32 31 31 30 29 28 26 26 26 25 25 25 24 23 22 22 21 20 19 19 18 18 18 17 18 17 17 16 15 15 13 11 10 11 11 10 10 9 8 9 8 8 9 9 10 11 11 12 13 14 14 14
2 4 4 9 8 6 6 4 5 2 2 3 6 0 4 2 6 8 3 0 4 7 7 7 8 8 8 9 8 9 14 17 18 20 25 30 32 32 33 34 34 34 34 34 33 33 33 32 31 30 29 29 28 28 26 26 26 25 23 23 22 21 21 21 20 20 19 18 18 18 18 17 16 15 15 14 13 12 12 12 12 11 10 9 9 9 9 10 11 11 12 13 14 15 16 16 16
3 3 2 4 7 6 6 2 1 2 2 2 4 2 6 7 13 8 1 4 6 6 6 6 7 6 6 7 7 8 11 15 18 24 29 30 31 32 33 34 34 35 35 34 34 34 34 33 32 31 31 31 31 30 28 28 27 25 25 24 23 22 22 23 22 21 20 19 19 19 19 18 17 16 16 15 15 15 14 14 14 13 12 11 10 10 10 11 11 12 13 14 15 16 17 17 18
3 2 1 1 1 5 6 2 3 5 2 2 5 3 6 8 12 6 2 6 7 6 7 6 7 6 6 6 7 8 10 16 21 25 27 27 29 30 32 33 34 35 34 35 37 36 35 34 34 33 33 32 32 32 31 30 29 27 26 26 25 24 23 24 24 22 21 21 20 20 20 19 18 17 17 17 17 17 17 17 16 14 13 14 13 12 12 12 12 12 14 15 15 16 17 18 18
3 1 1 1 3 4 7 3 5 5 1 2 6 3 7 9 10 6 2 6 7 8 8 7 7 7 7 7 7 8 8 14 19 22 25 27 29 29 31 33 34 35 35 36 37 37 36 35 35 35 35 34 33 34 33 32 31 29 29 28 27 26 25 25 25 24 23 22 22 21 20 20 20 20 19 19 18 18 17 17 17 15 14 14 15 15 16 14 14 14 14 15 16 17 18 18 19
2 1 3 2 3 3 5 3 4 3 1 0 3 3 4 6 6 5 1 7 7 8 8 7 8 8 8 7 7 8 7 9 14 21 27 29 30 31 32 33 34 35 36 37 36 36 37 36 36 36 37 37 35 34 34 34 33 31 30 29 28 28 28 27 26 25 25 24 24 23 22 22 21 21 21 21 20 19 18 17 16 16 15 15 15 16 18 16 17 17 14 14 16 19 20 20 20
1 1 3 3 3 3 4 3 3 1 2 3 4 4 6 7 5 5 1 6 7 8 10 8 7 7 7 7 6 7 7 8 11 21 29 31 32 32 33 33 33 34 36 37 37 37 37 37 36 36 36 37 36 35 35 34 33 32 31 30 30 29 29 29 27 27 26 26 26 25 24 23 23 23 22 22 21 20 19 17 16 15 15 15 14 15 16 17 18 18 16 17 18 20 21 22 22
4 3 3 3 3 4 3 4 3 4 1 4 5 5 10 11 9 6 2 4 7 9 8 6 7 7 7 6 6 7 8 9 15 23 29 31 32 32 33 33 32 33 35 36 37 37 36 37 37 37 37 37 37 36 35 35 33 33 32 32 31 31 31 30 29 28 27 27 26 26 25 24 24 23 23 23 22 21 20 20 18 16 16 15 15 15 15 16 17 18 20 21 21 20 21 22 22
6 4 4 4 4 4 4 5 4 5 3 5 7 7 10 12 12 9 3 2 6 7 6 5 7 7 6 7 7 8 8 11 18 22 22 26 31 33 33 33 33 33 34 35 36 36 36 37 37 37 38 38 37 36 36 36 35 34 34 33 33 34 33 31 30 30 28 28 27 26 26 25 24 24 23 23 23 21 20 20 20 18 19 18 16 16 16 16 17 20 22 22 23 22 22 23 22
3 1 1 1 3 3 4 4 5 1 4 6 7 8 10 11 11 10 3 1 4 6 7 8 8 7 7 8 8 9 10 12 14 15 19 24 28 31 32 32 32 31 33 34 35 37 38 38 38 38 39 38 38 37 37 37 36 35 34 35 36 35 34 32 32 32 30 29 28 26 26 25 24 24 24 23 23 22 21 21 21 21 21 21 18 16 17 17 19 22 22 23 24 22 22 23 21
1 1 3 4 2 5 6 4 4 1 3 4 2 5 11 11 11 9 2 3 6 8 9 10 10 9 7 8 10 11 10 10 10 11 17 21 25 28 30 31 32 32 34 36 36 38 39 38 39 39 39 39 39 39 38 38 38 37 36 36 36 34 34 34 34 33 32 30 29 28 27 25 25 24 24 23 23 23 22 22 22 20 19 19 18 17 17 17 19 21 22 22 21 19 20 21 21
2 0 2 4 2 4 7 4 2 1 2 3 2 3 9 10 11 9 4 6 8 9 10 11 10 9 8 9 11 11 9 10 10 10 14 20 24 26 29 30 33 35 36 36 37 37 38 38 39 39 39 39 40 40 39 39 38 38 37 35 34 33 33 33 34 33 32 31 31 29 28 26 25 24 23 22 22 22 22 22 22 21 19 16 16 17 16 16 18 21 21 21 18 16 17 19 19
3 2 3 4 2 1 4 4 1 2 0 1 1 2 7 8 7 9 7 8 8 8 9 9 7 8 10 11 9 9 11 12 11 10 12 17 20 22 27 30 33 34 34 35 37 37 38 39 39 39 39 40 40 41 41 40 37 36 35 34 32 31 31 31 31 32 32 32 31 30 28 27 26 24 22 21 20 20 19 19 19 19 19 19 18 18 17 17 21 22 22 21 20 17 17 17 16
4 5 4 5 4 4 4 4 3 3 3 2 2 4 6 5 5 8 6 2 6 8 7 9 8 8 10 8 8 9 11 12 12 11 11 13 17 22 28 32 32 32 33 35 38 39 39 39 40 40 40 40 40 41 41 40 37 34 33 31 28 27 28 28 28 31 32 32 31 30 28 27 26 24 22 20 18 18 18 18 18 18 20 20 20 20 20 20 21 21 21 22 23 20 17 16 14
4 5 6 8 8 4 4 3 4 3 4 2 0 2 5 4 4 9 5 4 6 5 4 10 10 8 9 8 10 11 11 11 10 11 11 12 17 21 25 28 29 31 35 37 38 39 40 39 39 40 40 40 40 40 40 40 38 36 33 31 28 27 27 29 30 31 30 30 30 29 28 27 26 25 23 20 18 18 19 19 19 19 21 22 20 22 23 19 15 14 15 20 23 21 17 15 14
3 5 7 9 8 5 4 1 1 1 4 4 1 4 6 5 4 8 4 6 9 6 5 10 10 8 9 10 11 12 11 10 9 10 10 11 16 18 21 26 29 33 37 38 37 38 38 38 39 40 40 40 40 39 39 40 39 38 36 35 34 32 30 31 31 29 27 27 27 27 27 26 26 25 23 21 19 19 19 19 19 19 20 17 14 15 15 13 11 13 14 15 16 15 12 10 10
3 5 8 8 7 8 7 5 4 3 3 4 3 3 3 5 5 6 3 4 9 9 8 10 9 10 11 11 12 12 12 10 9 10 10 11 15 18 23 28 33 36 38 36 36 36 37 37 38 39 39 40 40 39 39 39 40 39 38 37 36 35 34 32 28 25 24 23 23 24 25 25 24 23 22 20 19 19 18 19 18 17 16 16 14 13 13 14 13 14 13 8 6 5 5 5 6
5 5 6 6 5 7 6 6 5 2 2 4 4 1 2 5 6 5 3 3 8 9 10 11 10 11 11 11 12 12 11 9 8 10 10 12 17 22 25 28 31 34 34 34 35 36 36 36 37 37 38 39 39 39 39 39 39 39 38 37 35 35 34 31 27 24 22 22 22 22 22 22 22 21 20 19 18 18 17 18 17 15 15 17 17 14 14 15 13 9 7 5 3 4 4 5 5
4 4 5 3 2 2 3 5 4 1 1 5 6 2 3 5 6 4 2 2 6 9 9 9 9 9 9 9 10 10 9 7 8 9 10 14 18 21 23 23 24 26 28 30 31 32 33 34 35 36 37 38 38 38 39 39 39 38 38 37 36 34 32 29 25 23 21 20 20 20 20 20 20 20 19 18 17 17 17 17 17 15 13 13 12 11 9 9 9 7 5 4 5 5 6 5 4
5 6 5 4 3 4 3 2 3 2 4 6 6 4 3 5 5 4 4 5 7 8 8 9 8 7 7 8 9 9 7 7 8 8 10 15 18 19 18 19 21 21 23 26 27 28 30 32 33 35 36 36 37 37 38 38 38 38 38 38 36 35 32 29 25 23 22 21 20 19 19 19 19 19 18 17 16 16 15 14 14 13 12 10 9 11 10 8 9 10 9 8 8 8 8 7 5
3 4 4 3 1 2 2 3 2 4 6 5 4 2 3 5 5 4 6 6 6 8 8 10 9 8 7 7 7 7 7 6 7 7 8 10 12 14 16 18 20 20 21 24 26 27 28 30 31 33 34 35 35 36 37 37 38 38 39 38 36 35 33 30 28 26 24 23 21 19 19 19 19 18 17 17 16 14 14 13 13 13 14 14 13 13 15 14 13 13 12 11 9 8 7 7 6
2 3 5 4 1 0 2 2 1 5 5 2 1 1 3 6 7 8 10 10 10 10 9 9 9 8 8 8 7 6 5 5 6 6 6 6 7 10 14 17 19 20 21 23 25 27 27 28 29 31 33 34 34 35 36 37 37 38 38 37 36 35 33 31 29 27 26 24 22 21 21 21 20 19 19 18 16 15 13 13 13 14 14 16 16 16 16 15 14 12 10 9 8 7 6 6 5
4 4 5 5 3 3 5 3 1 4 4 2 2 2 3 4 5 11 14 15 13 9 8 9 9 9 10 8 7 6 6 5 5 5 5 5 6 8 11 13 14 17 19 20 22 25 26 27 28 30 32 32 32 34 35 36 37 37 37 36 36 34 32 31 29 27 27 25 24 23 23 23 22 21 20 18 16 15 13 12 12 11 9 9 11 13 13 12 11 10 8 7 6 6 6 6 6
6 5 4 5 5 4 4 3 3 4 3 2 2 1 3 3 4 8 11 11 10 7 6 7 7 8 8 8 7 7 7 6 5 5 5 5 6 8 9 9 11 12 14 16 19 21 23 25 26 28 30 30 31 32 33 35 36 36 35 35 34 33 32 30 29 27 27 26 24 24 23 23 22 21 20 18 17 15 14 12 11 9 8 7 7 9 10 9 8 8 7 6 5 4 4 5 5
4 2 3 4 6 5 2 2 4 3 1 2 2 3 4 4 7 9 7 7 8 7 7 6 7 7 5 7 8 7 6 6 5 5 5 5 7 8 9 9 10 11 12 14 15 18 20 23 24 26 28 29 29 31 32 33 34 34 33 33 32 31 30 29 28 27 26 26 25 24 23 22 21 20 20 18 17 17 15 13 12 10 9 8 7 7 10 10 8 8 7 8 8 7 7 8 7
2 2 4 5 4 6 3 2 1 3 2 4 1 3 5 3 8 10 7 8 9 7 6 6 8 7 5 7 8 6 6 6 5 5 5 5 6 7 9 10 11 11 12 13 14 16 17 19 22 23 25 26 27 28 30 31 31 31 31 31 30 30 29 28 28 27 26 25 24 23 22 21 20 20 19 18 18 17 15 13 12 11 10 10 9 8 10 10 9 9 10 11 11 10 9 11 10
5 4 6 3 1 3 3 2 1 2 5 5 0 4 5 2 5 7 7 10 11 9 7 7 7 6 6 9 8 6 6 5 5 5 4 5 5 6 8 9 10 11 12 14 14 15 16 17 19 22 23 25 25 26 27 29 29 30 30 29 29 28 28 27 27 27 26 25 24 23 22 21 20 19 18 18 17 17 16 14 13 12 12 12 11 10 10 10 10 12 12 12 12 11 11 12 11
4 4 3 4 3 2 1 3 3 1 4 5 3 3 4 5 6 4 5 9 10 9 7 7 7 6 7 9 8 7 6 5 5 5 4 5 5 6 7 8 10 11 11 13 14 15 16 17 18 19 21 23 24 24 25 26 26 27 28 28 27 27 27 27 26 27 26 25 25 23 22 21 20 19 18 18 18 17 16 15 14 14 14 13 13 11 11 11 11 12 13 13 13 12 11 12 11
2 1 2 2 2 4 3 3 3 3 4 4 3 4 4 7 6 6 9 11 10 10 7 6 7 7 7 8 7 6 5 5 6 5 5 4 6 7 7 8 9 10 11 11 12 13 15 16 17 18 19 19 21 22 23 23 24 25 25 25 26 26 26 26 26 27 26 25 25 24 23 22 21 20 19 18 18 17 17 17 16 16 15 15 14 13 12 12 13 14 14 14 14 12 11 11 10
3 3 4 2 1 2 2 1 2 3 4 3 3 6 7 6 5 9 12 11 12 13 9 7 7 6 7 7 7 5 5 6 6 5 5 4 6 8 7 7 8 9 9 10 10 11 12 14 16 17 18 18 19 20 21 23 23 24 25 25 26 26 26 26 26 26 26 25 24 24 23 23 22 21 20 19 18 18 18 18 17 16 16 16 16 15 15 15 16 16 15 14 13 11 10 9 8
7 6 7 7 4 3 3 5 1 2 3 4 3 8 10 5 6 9 11 11 12 10 6 5 6 7 7 6 6 6 6 6 5 4 4 4 6 8 7 7 8 8 9 9 10 11 11 13 14 15 17 19 20 21 22 23 24 24 25 26 26 26 26 26 26 26 25 24 24 24 24 23 22 21 20 20 20 20 19 19 18 18 18 18 18 18 17 16 16 15 15 13 11 10 9 8 7
Wind_Direction
9 11 30 34 358 350 27 52 76 327 71 81 312 125 227 208 184 167 146 162 53 343 296 53 81 92 104 120 148 148 119 153 168 149 209 223 146 151 158 159 159 156 151 148 152 149 141 139 139 136 130 128 128 127 131 127 120 115 104 99 92 91 95 96 95 95 98 94 91 94 92 91 90 86 85 84 83 84 84 83 82 83 83 84 86 87 89 90 88 87 85 84 87 88 89 90 87
13 19 34 44 16 36 245 62 91 336 42 59 275 159 262 325 132 183 189 192 152 157 134 99 86 78 79 95 114 105 57 12 161 164 184 144 144 152 161 162 162 157 153 153 153 149 145 144 143 138 129 128 128 129 131 128 121 114 111 104 97 96 98 98 100 101 100 95 92 92 92 91 89 87 88 87 86 87 87 87 86 86 86 87 89 90 93 97 92 89 88 87 90 91 91 90 87
19 35 36 56 17 37 82 41 75 62 52 246 271 245 248 135 185 207 216 193 145 149 149 109 83 81 74 67 56 84 82 346 103 141 123 145 149 158 165 165 162 158 155 153 151 149 146 146 145 141 132 127 127 132 131 130 129 122 116 107 102 101 101 103 105 105 99 98 96 91 90 90 89 90 92 91 92 90 90 90 89 88 87 88 89 92 97 101 97 92 91 91 94 92 91 91 89
26 44 31 52 41 28 60 41 109 117 63 221 250 263 216 179 199 219 227 187 146 153 167 91 58 36 84 91 53 78 138 1 117 149 142 159 164 162 164 164 161 158 154 151 151 149 145 145 145 143 136 130 128 136 137 132 135 129 119 110 105 104 106 108 109 108 101 100 97 96 97 94 92 95 96 95 95 94 93 92 92 92 90 91 91 95 99 103 100 94 93 93 95 94 92 92 92
42 53 34 58 83 38 83 69 105 100 246 196 188 261 235 196 190 193 200 213 220 226 222 100 79 303 74 103 119 121 158 106 143 170 147 168 170 161 163 162 160 156 153 151 150 150 144 144 145 144 140 135 130 136 141 134 135 130 121 115 110 107 109 111 110 107 104 103 99 101 102 98 94 96 98 96 99 100 99 97 96 95 92 92 93 96 99 103 101 95 93 93 95 95 93 92 91
69 70 45 60 89 123 103 72 146 267 241 172 179 255 222 195 184 171 155 253 262 251 227 104 126 142 78 7 110 145 158 116 149 171 157 167 168 162 163 162 160 155 153 151 152 151 140 144 148 146 140 137 132 135 142 136 137 133 125 119 116 114 114 113 112 108 106 107 105 107 104 99 98 97 96 93 97 100 100 100 98 99 98 97 97 98 99 103 103 98 94 93 95 95 94 93 91
70 80 35 59 53 25 98 151 206 247 245 173 188 212 192 199 183 153 140 179 211 277 17 107 138 110 83 310 106 126 102 134 154 169 170 167 165 163 164 163 159 154 152 152 153 150 141 146 150 146 142 137 134 140 144 138 139 137 130 125 126 124 121 120 116 114 112 112 112 113 108 102 103 101 97 95 95 95 95 95 95 97 98 99 99 98 98 103 106 102 98 95 96 96 94 93 93
59 71 10 79 39 24 89 166 232 219 228 214 220 197 186 193 169 149 162 165 168 211 60 146 134 91 87 27 112 286 79 147 163 170 174 166 165 165 166 164 158 155 154 154 154 152 146 149 153 151 148 140 136 142 144 139 142 143 138 135 136 129 124 125 120 120 118 117 115 111 106 103 105 105 103 101 100 97 95 94 94 94 94 96 98 98 97 104 109 104 100 98 98 98 95 94 94
49 46 39 80 87 39 42 312 277 240 245 265 241 213 194 181 161 149 159 147 161 149 145 183 136 100 166 47 98 289 57 153 161 167 173 167 168 167 168 166 159 157 155 156 156 155 150 152 158 158 156 147 140 143 142 141 148 149 143 139 138 133 129 129 127 127 122 120 119 111 103 103 108 110 108 105 103 101 99 99 98 96 96 97 97 99 98 104 110 106 104 103 101 99 97 96 95
37 27 121 71 98 68 344 291 282 263 258 270 228 215 203 180 167 157 145 148 163 136 166 179 90 105 140 92 191 331 106 156 156 162 169 169 170 169 170 168 163 159 156 158 159 158 154 156 160 162 162 155 146 144 143 142 151 151 144 141 141 141 136 133 133 132 128 126 125 116 103 104 109 111 112 109 106 104 104 103 101 100 100 101 99 99 101 105 111 112 111 107 103 101 98 95 96
35 359 98 75 77 127 238 240 277 267 279 297 257 234 193 167 144 160 120 138 159 126 180 148 89 117 107 54 232 53 147 160 159 162 166 169 171 173 172 169 167 163 159 158 160 161 157 157 160 163 164 161 154 148 144 141 149 152 146 145 145 144 139 138 137 137 136 129 129 129 123 122 122 119 117 114 111 108 106 105 105 104 103 105 104 103 103 107 113 117 119 115 109 104 100 97 97
89 340 65 88 139 186 203 196 274 283 314 319 217 254 164 135 128 182 159 147 165 144 206 201 142 138 89 344 254 31 156 167 166 163 166 170 172 176 174 170 170 167 162 160 162 164 161 159 161 163 163 164 161 154 151 146 149 154 153 154 151 148 147 146 141 141 140 131 138 146 143 141 136 131 125 116 113 110 109 107 105 103 103 104 105 105 105 108 115 122 130 129 121 113 107 103 101
122 134 93 122 182 177 169 165 278 315 326 265 206 242 135 139 204 198 159 136 162 152 233 206 146 115 95 230 271 316 178 176 170 165 168 170 173 177 174 170 170 169 166 165 166 166 164 162 162 163 162 165 166 163 161 159 158 161 163 164 159 153 153 152 146 146 149 146 154 155 152 152 146 140 129 118 113 112 111 107 103 101 101 103 106 108 107 110 118 130 141 143 136 127 119 112 107
139 149 114 143 138 147 162 155 274 189 259 255 216 173 142 178 209 186 142 130 197 195 208 179 146 113 102 201 293 283 192 182 173 168 171 171 175 176 175 173 171 170 171 172 170 169 166 164 167 167 165 166 169 169 169 169 168 169 170 168 157 149 148 152 152 155 158 158 162 158 157 157 150 141 130 121 114 109 106 106 105 105 105 107 112 113 112 118 127 137 147 151 149 141 132 125 118
141 140 90 113 59 312 196 187 173 162 234 231 182 159 154 232 145 162 172 152 213 248 130 147 159 137 156 166 211 218 184 179 174 169 170 172 176 176 177 176 174 174 174 177 175 173 169 167 171 171 171 170 172 174 173 172 173 175 174 169 156 144 142 151 156 159 159 160 162 161 161 157 153 148 136 125 115 106 101 103 105 105 107 109 112 113 114 124 132 138 146 152 156 155 149 142 136
116 118 67 100 155 261 218 181 127 143 243 221 190 141 149 257 135 165 224 150 160 301 89 170 209 6 165 169 210 192 174 172 172 169 170 172 175 176 179 178 178 179 178 180 179 179 175 171 173 175 176 174 176 176 175 175 175 178 177 174 163 150 144 151 158 158 158 159 160 161 164 161 160 159 150 137 125 113 103 102 105 106 105 104 106 109 113 124 131 137 144 152 159 163 164 163 160
61 88 75 98 180 215 211 177 166 170 245 241 247 168 155 232 254 188 274 87 121 95 8 263 290 359 173 217 242 171 166 166 168 168 168 168 171 171 175 178 179 180 182 184 182 183 181 177 176 177 179 177 180 179 178 179 177 180 180 179 174 166 158 155 160 161 162 162 161 163 166 167 167 168 162 153 142 129 117 109 110 111 107 104 104 106 111 121 130 139 147 154 161 167 174 176 178
48 87 107 177 185 198 189 180 196 183 224 228 219 187 160 182 202 197 76 60 60 66 356 332 319 341 227 281 142 157 160 162 166 166 165 167 169 169 173 178 180 182 185 186 187 186 185 184 180 180 182 180 182 182 182 181 181 182 182 184 180 177 171 166 166 168 171 168 167 168 169 171 172 172 168 163 156 146 135 124 118 116 114 111 108 107 110 120 128 139 150 157 164 173 182 185 189
81 114 122 206 198 211 197 185 203 205 244 227 208 195 175 186 177 166 170 183 138 150 296 342 324 330 346 140 143 152 157 160 166 167 167 170 173 174 175 179 183 185 187 188 189 190 190 189 186 184 184 184 185 186 186 186 186 185 185 186 184 181 177 174 173 174 179 178 176 174 175 176 176 176 176 175 170 162 153 143 135 123 120 121 120 120 117 124 130 135 140 145 150 158 171 184 193
158 120 123 238 210 235 236 206 220 229 249 202 216 204 185 194 160 159 171 174 197 197 209 198 237 255 210 145 147 152 156 160 168 169 171 176 178 180 179 181 185 188 189 190 189 191 193 192 192 190 188 187 189 189 190 190 191 190 190 190 188 186 182 179 179 180 183 184 184 182 181 182 181 183 185 187 187 182 178 172 167 151 140 139 143 147 138 137 137 132 131 135 134 132 139 156 178
100 131 175 226 182 257 257 211 235 252 223 187 185 136 195 207 152 158 141 147 237 236 216 198 195 190 169 162 155 157 160 164 171 174 176 178 182 185 185 187 189 189 190 190 191 193 195 196 196 195 193 192 193 194 193 194 195 195 195 195 194 193 190 188 185 186 187 188 189 189 188 188 189 192 193 197 201 204 206 206 208 208 206 216 206 186 174 168 160 148 139 136 136 139 139 139 158
314 215 195 203 167 269 257 201 234 265 208 150 131 161 195 173 142 169 156 173 227 226 212 205 188 172 166 166 162 163 167 171 175 179 181 181 184 188 190 191 190 191 191 192 194 195 196 197 198 198 198 197 198 198 198 199 199 200 200 199 199 199 198 197 194 193 191 190 191 192 193 194 195 197 198 202 210 219 224 227 238 244 242 251 225 196 189 187 188 193 190 197 231 236 220 213 204
305 271 262 230 189 239 263 198 259 240 160 164 171 207 160 142 205 183 179 200 216 233 200 181 178 176 167 162 163 169 174 179 182 185 185 185 187 189 191 192 191 193 194 196 197 197 198 198 200 201 201 201 202 203 203 204 205 205 205 204 205 205 205 204 203 202 198 196 195 196 197 197 199 199 200 203 214 227 235 241 254 258 250 242 216 194 195 199 206 218 242 276 293 306 300 294 287
128 246 286 279 180 218 252 293 315 182 182 202 179 186 159 180 213 129 204 223 250 333 207 150 154 167 162 160 169 178 181 186 189 190 190 189 191 192 193 193 194 196 197 199 199 199 199 198 200 202 203 204 205 206 207 209 210 210 209 210 211 210 212 211 210 209 206 204 204 205 206 206 207 206 208 210 218 233 245 251 251 251 248 235 222 213 216 222 243 264 291 305 308 312 308 302 302
190 229 295 331 334 257 274 284 317 39 207 207 115 185 225 206 199 144 227 236 265 342 110 130 140 154 164 171 179 183 186 191 193 193 194 195 195 195 196 197 197 198 200 201 200 201 199 198 200 202 204 205 206 208 210 212 212 213 214 214 215 214 217 218 216 214 212 212 212 214 215 216 219 220 222 222 227 238 250 258 251 245 245 242 240 242 249 260 280 295 304 309 314 317 316 312 306
209 224 342 343 316 298 311 306 287 29 224 172 143 237 287 301 341 256 244 228 203 88 120 138 143 159 178 181 184 186 190 195 195 196 197 197 196 197 200 200 200 201 203 203 203 204 202 200 201 202 204 205 208 209 211 214 213 214 216 217 218 219 220 220 219 218 217 217 218 221 223 225 229 232 233 233 239 247 254 260 257 251 249 251 255 258 266 276 285 297 305 309 314 316 318 317 309
258 318 331 325 307 292 312 310 285 309 335 178 181 220 278 320 357 259 263 213 141 116 133 156 159 173 184 186 191 190 194 198 197 196 196 196 197 200 202 203 204 204 205 205 206 207 206 204 204 204 205 207 210 211 214 216 215 217 219 220 222 223 223 221 221 221 219 220 222 225 229 233 237 239 240 241 247 254 259 263 264 259 257 261 265 271 275 281 287 294 303 308 309 310 312 312 306
332 358 340 322 327 304 276 287 283 276 117 175 159 183 273 340 278 234 267 272 135 133 154 173 178 188 188 189 193 194 201 203 199 195 195 198 201 203 204 205 205 206 206 207 207 209 210 209 209 208 208 210 213 214 216 218 220 220 221 224 225 225 225 222 222 222 220 221 223 225 230 235 239 242 244 246 250 255 260 264 266 263 266 272 275 281 283 285 290 292 298 302 304 305 305 307 304
359 45 2 317 340 324 264 256 281 257 196 181 137 84 288 255 235 239 269 50 109 122 165 186 193 199 196 195 194 200 207 204 199 202 204 205 205 205 206 208 206 207 209 209 209 210 212 213 213 212 211 213 216 217 220 222 224 224 224 226 227 227 225 224 225 224 223 223 222 224 228 232 237 241 245 250 252 254 258 259 262 264 269 275 276 281 285 288 291 292 296 297 299 299 300 303 303
9 46 81 313 335 311 267 247 280 193 188 185 143 242 268 242 241 242 115 133 113 125 189 201 207 208 202 203 202 209 208 201 204 209 211 211 210 210 210 211 209 210 211 210 211 212 213 215 215 216 215 216 218 219 222 225 227 227 228 228 228 228 226 227 227 226 227 226 226 228 229 231 235 239 244 249 252 254 256 256 259 263 266 270 272 277 283 288 290 292 296 294 295 295 296 301 300
26 352 58 68 268 278 289 282 161 165 202 128 125 217 260 254 253 258 185 164 151 182 211 207 214 216 210 210 209 216 212 208 212 214 215 216 216 215 215 214 213 213 214 213 214 214 215 216 216 218 218 219 220 220 223 225 228 229 231 231 230 229 230 231 230 230 230 230 232 233 233 234 235 239 243 246 250 254 256 256 259 262 264 264 263 269 272 275 280 289 295 292 292 293 295 300 297
46 276 296 7 190 262 301 272 179 176 246 96 126 201 266 266 265 283 236 176 173 202 218 214 218 220 216 216 215 220 223 219 222 222 221 221 220 220 219 218 216 215 216 216 217 217 217 217 219 220 220 221 222 223 224 226 229 230 232 233 233 232 233 235 235 235 235 235 236 237 238 238 238 240 242 244 248 252 257 260 262 262 263 263 261 260 258 258 268 279 291 292 288 291 293 293 292
22 210 247 267 178 248 299 279 231 200 117 161 173 199 262 269 274 317 258 179 184 210 224 223 220 225 221 218 221 222 228 228 228 228 225 223 223 222 221 220 219 218 218 218 219 218 218 219 220 221 222 222 223 225 226 227 228 230 232 233 234 235 235 237 238 238 237 236 237 238 239 240 240 240 241 244 247 250 256 264 269 267 264 265 264 260 254 255 265 272 283 287 282 283 285 285 288
215 185 226 247 185 207 273 280 263 166 111 208 206 211 237 252 272 328 339 174 183 214 226 228 226 233 231 225 229 229 228 229 229 227 224 223 223 223 223 223 221 221 221 220 220 221 221 221 221 222 223 224 225 226 226 227 228 229 232 234 236 236 237 238 238 238 237 237 238 239 240 240 240 241 242 245 247 251 256 261 268 271 269 268 267 264 256 253 261 271 280 284 277 276 281 284 286
162 173 192 237 232 210 253 273 223 148 150 212 186 223 248 258 269 280 289 167 188 221 230 241 244 239 243 239 233 233 231 235 235 229 224 223 223 224 224 223 223 222 222 222 222 222 223 223 223 223 223 224 225 227 227 228 228 229 230 233 235 236 237 238 237 238 238 238 240 240 242 243 242 242 243 245 248 251 253 256 261 267 271 272 271 270 266 260 264 272 279 281 275 272 280 284 285
162 197 176 187 224 230 235 255 247 164 174 224 198 215 242 251 259 256 260 164 196 236 249 253 251 240 242 242 237 237 232 238 240 234 229 226 224 224 223 222 223 222 222 223 222 222 222 223 223 223 223 223 224 225 225 226 225 226 228 229 231 232 234 235 237 238 238 239 241 242 244 246 247 247 246 248 250 251 253 256 258 261 264 267 271 272 272 270 269 272 274 276 275 272 278 282 285
195 257 356 230 228 269 259 259 301 185 174 236 216 219 243 247 257 258 251 155 228 248 246 241 242 236 233 233 239 240 235 243 250 243 234 231 228 225 223 222 221 221 221 222 222 221 221 222 223 223 223 222 222 222 222 222 222 222 223 226 228 230 232 233 236 237 238 240 242 244 246 248 250 250 250 250 250 251 254 256 256 256 258 260 266 273 274 270 267 271 274 277 277 272 274 283 291
269 15 325 307 265 267 270 253 307 324 179 261 249 226 254 254 260 265 188 178 240 233 230 239 234 229 232 232 238 240 243 256 258 247 236 231 228 224 222 220 219 219 220 220 220 221 221 222 222 224 223 221 221 222 222 222 223 223 224 225 227 230 232 234 236 238 239 241 243 244 246 248 251 251 251 251 251 253 254 256 255 255 259 261 263 269 273 272 268 269 271 276 279 274 275 286 293
236 192 246 275 274 278 284 260 274 16 179 275 343 222 259 261 261 266 217 206 240 229 223 236 230 223 227 226 234 237 243 255 249 242 236 229 226 222 219 218 218 219 220 219 220 221 221 221 222 223 223 222 222 222 223 223 225 226 228 229 230 231 234 237 239 240 241 242 243 244 246 248 250 251 251 251 251 253 254 257 255 253 257 261 258 256 261 268 268 265 267 272 274 274 280 288 293
208 214 222 243 249 225 286 294 330 9 86 212 67 266 273 273 276 276 241 216 243 246 236 244 236 222 226 227 233 233 232 242 243 239 236 228 225 221 218 218 219 219 219 219 219 220 220 220 221 222 222 223 223 223 223 225 226 227 228 230 233 234 237 239 239 240 240 241 241 243 245 247 248 250 251 251 251 252 254 258 259 257 258 258 256 254 257 265 265 265 269 269 262 260 272 285 291
216 218 214 240 246 214 255 306 347 336 346 96 82 338 296 270 272 271 263 250 261 259 255 260 251 234 241 250 251 237 229 234 237 237 234 224 221 220 219 219 219 217 218 219 219 219 219 220 221 222 222 223 223 223 224 224 223 223 223 225 228 231 234 235 236 237 237 238 239 241 243 245 246 248 249 249 249 249 249 251 254 257 258 258 256 253 253 260 266 272 274 270 261 253 264 280 286
233 223 211 238 253 261 287 330 19 358 317 303 143 290 284 295 277 253 277 340 285 264 255 254 252 243 243 251 249 241 237 235 233 237 236 225 223 223 223 221 218 218 220 221 220 220 220 220 221 222 223 223 223 223 223 222 221 220 219 218 219 222 226 229 231 234 235 237 239 242 243 245 246 247 249 248 248 248 248 249 251 256 260 259 258 259 256 258 272 285 285 278 267 255 259 270 278
235 212 199 230 248 260 269 259 65 273 268 297 75 189 255 315 296 252 289 327 286 281 269 255 252 245 235 235 240 241 241 238 233 239 238 230 226 223 224 223 219 220 224 223 222 222 220 220 221 222 223 224 224 224 222 221 220 220 220 220 221 221 224 229 232 234 237 239 242 243 244 244 245 246 247 247 248 249 249 252 251 254 262 264 264 263 257 257 273 286 291 287 269 256 256 266 283
225 216 195 207 221 231 232 200 200 237 261 314 12 140 231 288 266 261 320 317 289 289 274 263 252 242 238 234 237 238 238 234 229 235 234 231 228 222 223 224 222 224 226 224 222 222 221 220 221 222 223 225 225 224 222 221 220 220 221 222 223 224 227 231 233 235 238 240 242 243 243 243 243 243 243 244 245 245 242 244 243 243 256 270 270 260 252 258 271 281 283 279 263 262 278 289 305
229 215 184 185 194 211 210 185 202 264 324 295 307 128 204 269 273 297 341 285 283 283 266 261 251 241 240 240 242 243 242 236 227 231 232 231 229 226 227 228 228 228 226 223 223 223 223 222 221 222 223 224 224 224 224 223 223 222 222 222 223 226 229 231 233 235 237 239 240 240 239 238 237 236 237 236 236 235 232 237 242 242 249 258 257 251 246 248 255 261 256 252 281 308 307 304 308
211 146 106 87 92 106 137 160 169 111 282 251 256 213 204 266 277 296 327 272 265 268 262 258 252 248 247 250 255 253 249 240 230 233 235 234 234 233 235 236 235 232 228 226 225 223 222 222 221 221 223 224 224 224 224 224 225 223 223 222 223 225 227 228 229 230 233 235 235 233 232 230 230 228 227 226 227 230 232 235 241 241 238 234 231 233 232 228 233 244 255 273 291 296 296 299 300
140 114 85 60 53 55 68 95 107 137 250 249 246 233 216 266 275 242 229 229 225 238 259 266 262 265 261 256 259 257 249 240 234 236 240 240 241 242 241 241 239 236 231 228 226 224 222 221 220 221 222 223 223 224 224 225 225 224 224 224 224 225 224 223 222 223 226 228 227 226 224 222 220 219 219 219 221 226 229 230 230 228 229 231 233 240 247 253 256 261 275 285 282 278 278 275 271
128 117 121 112 23 25 27 10 68 202 244 258 262 263 216 240 261 239 238 251 234 223 239 257 261 269 270 264 267 263 249 243 240 239 243 243 243 240 236 235 235 232 229 227 224 223 222 220 220 221 222 223 223 224 225 225 226 226 226 225 225 225 224 222 220 220 222 223 221 216 211 209 207 208 211 213 214 216 218 222 225 229 239 248 252 250 252 258 261 262 267 271 270 264 259 255 255
179 138 139 158 240 239 222 256 212 224 251 269 264 274 235 240 254 258 261 264 254 233 224 243 258 268 276 277 281 282 266 250 242 236 234 231 227 221 220 225 227 225 225 225 224 223 222 221 220 221 223 223 224 224 225 226 226 226 226 225 225 225 224 223 222 223 223 222 216 208 204 203 202 204 207 210 213 214 215 223 233 240 244 245 246 246 246 248 248 247 244 240 238 234 233 238 237
182 167 160 178 186 178 214 234 265 258 265 266 229 234 263 274 264 248 246 250 252 243 229 237 248 257 265 273 281 290 286 262 246 241 228 218 217 215 215 220 222 222 223 224 224 223 223 222 221 222 224 225 225 225 225 226 226 227 227 226 225 224 224 224 224 225 224 220 214 211 209 208 208 208 209 210 212 213 218 226 232 231 224 221 224 225 225 224 218 209 204 204 208 213 216 215 209
192 185 160 175 178 177 208 211 213 240 264 271 247 211 208 212 251 246 239 255 272 268 250 247 252 256 263 277 280 273 272 264 250 250 240 232 235 230 228 228 227 227 226 225 225 224 223 223 222 223 225 225 225 225 225 225 226 227 226 225 225 224 224 224 225 226 224 218 214 212 212 211 212 211 211 211 213 217 220 219 213 201 185 177 183 192 191 184 176 172 175 174 163 159 172 178 178
211 157 139 202 190 162 183 206 180 176 252 256 221 226 213 208 276 280 256 263 278 266 264 269 262 264 273 279 273 260 257 255 244 247 250 251 250 240 236 235 235 236 233 230 229 226 225 225 224 224 226 227 226 225 225 225 225 225 225 224 223 223 222 222 222 222 219 215 212 211 211 211 212 212 212 214 215 217 215 207 199 191 181 171 166 164 157 149 152 159 157 145 131 120 109 105 103
177 135 202 231 182 138 147 245 53 82 238 252 196 251 285 316 291 290 283 275 278 267 265 264 256 269 288 270 265 260 251 246 244 247 252 261 260 248 241 238 239 240 240 239 237 233 231 228 226 225 225 226 226 225 225 224 223 222 221 221 220 219 218 218 218 215 210 208 208 208 208 208 209 211 212 212 209 205 203 202 197 189 181 176 173 163 149 143 143 140 133 125 116 110 103 97 93
135 186 209 205 139 118 119 203 347 53 242 267 235 231 271 296 268 301 312 275 271 271 266 264 262 268 269 258 256 256 250 252 267 265 260 267 264 250 242 239 241 244 247 248 246 242 238 233 230 227 225 224 224 223 223 222 221 219 217 216 215 215 214 214 213 209 204 201 201 202 204 204 205 207 206 201 197 195 197 199 196 188 181 179 178 169 154 148 143 132 125 120 113 109 106 100 95
148 189 180 131 174 212 127 186 205 194 242 272 297 264 255 219 227 297 294 251 253 268 271 270 266 250 247 258 260 260 261 264 269 265 261 263 254 242 235 236 240 241 244 246 245 244 240 235 232 229 227 226 223 220 218 217 216 215 213 211 210 209 208 207 205 202 200 199 199 199 200 202 202 200 197 192 190 193 195 194 192 188 182 179 177 171 161 153 144 133 125 119 114 112 110 103 98
68 113 122 108 160 183 178 178 172 184 223 253 301 306 254 216 202 210 239 249 255 264 268 264 260 248 245 259 259 254 253 251 248 246 247 249 243 235 229 232 237 238 241 241 241 241 237 234 230 226 225 223 218 214 210 208 207 206 204 201 201 200 199 199 198 197 197 197 199 200 200 200 197 193 191 191 193 196 196 192 189 186 181 177 173 166 158 150 138 130 125 120 118 117 110 103 98
147 152 172 187 155 130 168 183 137 152 190 208 276 280 254 230 195 195 216 238 249 256 262 257 259 259 252 256 261 255 243 243 243 235 231 234 234 229 222 228 234 235 238 237 236 236 232 228 225 221 218 213 208 205 201 200 198 197 196 193 193 193 193 193 193 194 196 196 197 198 197 196 193 190 192 195 198 197 194 189 183 179 174 169 164 154 147 144 137 130 127 123 121 118 108 101 97
178 185 192 188 170 139 183 231 216 106 187 185 205 264 262 230 188 198 208 220 236 252 265 266 275 276 266 265 263 251 240 242 242 228 222 224 223 218 213 218 224 227 229 227 227 225 221 219 215 211 210 205 201 197 194 194 192 191 192 190 189 189 189 189 189 189 192 193 193 194 193 192 190 191 196 198 195 189 184 180 174 169 163 157 152 146 142 141 138 133 130 126 122 116 107 102 98